Regional Weather Roundup
Issued by NWS

Home | Current Version | Previous Version | Text Only | Print | Product List | Glossary Off
Versions: 1 2 3 4 5 6 7 8 9 10 11 12 13 14 15 16 17 18 19 20 21 22 23 24 25 26 27 28 29 30 31 32 33 34 35 36 37 38 39 40 41 42 43 44 45 46 47 48 49 50

000
ASUS43 KLMK 211310
RWRKY
KENTUCKY REGIONAL WEATHER ROUNDUP
NATIONAL WEATHER SERVICE LOUISVILLE KY
900 AM EDT SAT APR 21 2018

NOTE "FAIR" INDICATES FEW OR NO CLOUDS BELOW 12,000 FEET
WITH NO SIGNIFICANT WEATHER AND/OR OBSTRUCTIONS TO VISIBILITY.

KYZ001>023-026-027-061>063-070>075-211400-
WESTERN AND SOUTH CENTRAL KENTUCKY

CITY           SKY/WX    TMP DP  RH WIND       PRES   REMARKS
PADUCAH        FAIR      50  35  56 E6        30.32R
HENDERSON      FAIR      50  32  50 E9        30.37R
OWENSBORO      FAIR      50  29  44 E9        30.37R
HOPKINSVILLE   FAIR      50  33  51 E8        30.31S
BOWLING GREEN  FAIR      49  34  56 E6        30.35R
GLASGOW        FAIR      49  30  48 E8        30.36R
$$

KYZ024-025-028>034-038-045-046-053-211400-
NORTH CENTRAL KENTUCKY

CITY           SKY/WX    TMP DP  RH WIND       PRES   REMARKS
LOUISVILLE/SDF FAIR      50  27  40 E9        30.40R
LOUISVILLE/LOU FAIR      50  29  44 E8        30.41R
FORT KNOX      FAIR      48  27  43 E9        30.39R
$$

KYZ035>037-039>044-047>052-055>060-089>105-211400-
NORTHEAST KENTUCKY

CITY           SKY/WX    TMP DP  RH WIND       PRES   REMARKS
LEXINGTON      FAIR      49  27  42 E14       30.40S
COVINGTON      PTSUNNY   46  25  43 E10       30.43S
FRANKFORT      FAIR      48  27  44 E10       30.40R
$$

KYZ054-064>069-076>088-106>120-211400-
SOUTHEAST KENTUCKY

CITY           SKY/WX    TMP DP  RH WIND       PRES   REMARKS
JACKSON        FAIR      48  24  39 CALM      30.39R
LONDON         FAIR      49  26  41 E7        30.37S
SOMERSET       FAIR      48  27  43 MISG      30.39S
MIDDLESBORO    FAIR      40  32  73 CALM      30.39S
MONTICELLO     FAIR      49  30  48 NW6       30.38R
$$




USA.gov is the U.S. government's official web portal to all federal, state and local government web resources and services.